Regional Weather Roundup
Issued by NWS Goodland, KS

Home | Current Version | Previous Version | Text Only | Print | Product List | Glossary Off
Versions: 1 2 3 4 5 6 7 8 9 10 11 12 13 14 15 16 17 18 19 20 21 22 23 24 25 26 27 28 29 30 31 32 33 34 35 36 37 38 39 40 41 42 43 44 45 46 47 48 49 50

000
ASUS43 KGLD 210459
RWRGLD

GOODLAND FORECAST AREA HOURLY WEATHER ROUNDUP
NATIONAL WEATHER SERVICE GOODLAND KS
1000 PM MST SAT DEC 20 2014

...OFFICIAL OBSERVATIONS...

CITY           SKY/WX    TMP DP  RH WIND       PRES   REMARKS
GOODLAND KS    MOCLDY    35  29  78 SW9       29.93S
HILL CITY KS   PTCLDY    38  33  82 SW9       29.97S
IMPERIAL NEB   MOCLDY    30  25  81 SW8       29.93S
MCCOOK NEB     CLEAR     28  25  88 W8        29.93S
AKRON CO       CLOUDY    32  23  69 SE6       29.92F
BURLINGTON CO  MOCLDY    31  26  82 SW9       29.93S
LIMON CO       CLOUDY    28  22  78 N6        29.94F
$$

...UNOFFICIAL OBSERVATIONS...

CITY           SKY/WX    TMP DP  RH WIND       PRES   REMARKS
COLBY KS       CLEAR     34  30  86 S6        29.94S
GOVE KS          N/A     35  32  89 MISG        N/A
NORTON KS      CLEAR     32  27  80 SW7       29.93F
TRIBUNE KS     PTCLDY    28  28 100 S8        29.96F
KIT CARSON CO    N/A     28  25  88 MISG        N/A
YUMA CO          N/A     29  25  83 CALM        N/A
$$



USA.gov is the U.S. government's official web portal to all federal, state and local government web resources and services.